TimeCDT,TemperatureF,Dew PointF,Humidity,Sea Level PressureIn,VisibilityMPH,Wind Direction,Wind SpeedMPH,Gust SpeedMPH,PrecipitationIn,Events,Conditions,WindDirDegrees,DateUTC
12:15 AM,46.4,46.4,100,29.70,3.0,NNE,18.4,25.3,N/A,Rain,Light Rain,20,2012-10-25 05:15:00
12:35 AM,46.4,46.4,100,29.72,3.0,North,15.0,-,N/A,Rain,Heavy Rain,350,2012-10-25 05:35:00
12:55 AM,46.4,46.4,100,29.70,4.0,North,15.0,-,0.17,Rain,Rain,10,2012-10-25 05:55:00
1:15 AM,46.4,46.4,100,29.71,4.0,North,15.0,-,N/A,Rain,Light Rain,360,2012-10-25 06:15:00
1:35 AM,46.4,46.4,100,29.69,6.0,NNE,17.3,-,N/A,,Overcast,20,2012-10-25 06:35:00
1:55 AM,46.4,44.6,93,29.69,3.0,North,17.3,25.3,0.05,Rain,Light Rain,10,2012-10-25 06:55:00
2:35 AM,44.6,44.6,100,29.67,1.5,North,16.1,-,N/A,,Overcast,10,2012-10-25 07:35:00
2:55 AM,44.6,44.6,100,29.76,2.0,WNW,26.5,34.5,0.02,,Overcast,300,2012-10-25 07:55:00
3:15 AM,44.6,44.6,100,29.65,2.0,North,21.9,-,N/A,Rain,Rain,350,2012-10-25 08:15:00
3:35 AM,44.6,44.6,100,29.76,7.0,WNW,29.9,36.8,N/A,,Overcast,300,2012-10-25 08:35:00
3:55 AM,42.8,42.8,100,29.70,2.5,North,20.7,32.2,0.36,,Overcast,10,2012-10-25 08:55:00
4:15 AM,42.8,42.8,100,29.60,3.0,NNE,24.2,31.1,N/A,Rain,Heavy Rain,20,2012-10-25 09:15:00
4:35 AM,42.8,42.8,100,29.65,10.0,NNE,11.5,-,N/A,Rain,Light Rain,20,2012-10-25 09:35:00
4:55 AM,42.8,42.8,100,29.70,10.0,NW,18.4,-,0.14,,Overcast,320,2012-10-25 09:55:00
5:15 AM,42.8,42.8,100,29.70,3.0,NNW,21.9,29.9,N/A,Rain,Rain,330,2012-10-25 10:15:00
5:35 AM,42.8,42.8,100,29.72,5.0,NNW,24.2,31.1,N/A,Rain,Light Rain,330,2012-10-25 10:35:00
5:55 AM,41.0,41.0,100,29.72,3.0,NNW,24.2,33.4,0.08,Rain,Heavy Rain,330,2012-10-25 10:55:00
6:35 AM,39.2,39.2,100,29.74,-9999.0,NNW,27.6,34.5,N/A,,Overcast,330,2012-10-25 11:35:00
6:55 AM,39.2,37.4,93,29.76,6.0,NNW,27.6,39.1,0.04,Rain,Light Rain,330,2012-10-25 11:55:00
7:15 AM,37.4,37.4,100,29.76,3.0,NNW,31.1,41.4,N/A,Rain,Light Rain,330,2012-10-25 12:15:00
7:35 AM,37.4,37.4,100,29.78,4.0,NNW,26.5,35.7,N/A,Rain,Rain,340,2012-10-25 12:35:00
7:55 AM,39.2,37.4,93,29.78,10.0,NNW,23.0,31.1,0.10,Rain,Light Rain,340,2012-10-25 12:55:00
8:35 AM,39.2,37.4,93,29.80,4.0,NNW,23.0,29.9,N/A,Rain,Light Rain,340,2012-10-25 13:35:00
8:55 AM,37.4,37.4,100,29.82,3.0,NNW,20.7,32.2,N/A,Rain,Light Rain,330,2012-10-25 13:55:00
9:15 AM,37.4,35.6,93,29.84,3.0,NNW,27.6,36.8,N/A,Rain,Light Rain,340,2012-10-25 14:15:00
9:55 AM,37.4,35.6,93,29.86,1.5,NNW,25.3,33.4,N/A,Rain,Light Rain,330,2012-10-25 14:55:00
10:15 AM,37.4,35.6,93,29.88,1.2,NNW,28.8,35.7,N/A,,Overcast,330,2012-10-25 15:15:00
10:35 AM,37.4,35.6,93,29.89,2.0,NW,28.8,36.8,N/A,Rain,Light Rain,320,2012-10-25 15:35:00
10:55 AM,37.4,35.6,93,29.91,2.5,NW,27.6,35.7,N/A,Rain,Light Rain,320,2012-10-25 15:55:00
11:15 AM,37.4,35.6,93,29.92,4.0,NNW,32.2,-,N/A,Rain,Light Rain,330,2012-10-25 16:15:00
11:35 AM,37.4,35.6,93,29.94,5.0,North,-9999.0,-,N/A,Rain,Light Rain,0,2012-10-25 16:35:00
11:55 AM,37.4,35.6,93,29.95,10.0,NW,28.8,38.0,N/A,,Overcast,320,2012-10-25 16:55:00
12:15 PM,37.4,35.6,93,29.96,10.0,NW,28.8,39.1,N/A,,Overcast,320,2012-10-25 17:15:00
12:35 PM,37.4,33.8,87,29.97,10.0,NW,28.8,39.1,N/A,,Overcast,320,2012-10-25 17:35:00
12:55 PM,37.4,33.8,87,29.97,10.0,NNW,32.2,-,N/A,,Overcast,330,2012-10-25 17:55:00
1:15 PM,37.4,33.8,87,29.99,10.0,NNW,32.2,40.3,N/A,,Overcast,330,2012-10-25 18:15:00
1:55 PM,37.4,33.8,87,30.01,10.0,NW,29.9,36.8,N/A,,Overcast,320,2012-10-25 18:55:00
2:15 PM,37.4,33.8,87,30.01,10.0,NNW,26.5,34.5,N/A,,Overcast,330,2012-10-25 19:15:00
2:35 PM,37.4,33.8,87,30.03,10.0,NNW,20.7,32.2,N/A,,Overcast,330,2012-10-25 19:35:00
2:55 PM,39.2,33.8,81,30.04,10.0,NW,23.0,31.1,N/A,,Overcast,320,2012-10-25 19:55:00
3:15 PM,39.2,33.8,81,30.04,10.0,NW,21.9,34.5,N/A,,Overcast,320,2012-10-25 20:15:00
3:35 PM,39.2,32.0,75,30.05,10.0,NNW,25.3,-,N/A,,Overcast,330,2012-10-25 20:35:00
3:55 PM,39.2,32.0,75,30.07,10.0,NW,19.6,29.9,N/A,,Overcast,310,2012-10-25 20:55:00
4:15 PM,39.2,32.0,75,30.08,10.0,NW,23.0,-,N/A,,Overcast,320,2012-10-25 21:15:00
4:35 PM,37.4,32.0,81,30.10,10.0,NW,23.0,31.1,N/A,,Overcast,320,2012-10-25 21:35:00
4:55 PM,37.4,32.0,81,30.11,10.0,NW,23.0,29.9,N/A,,Overcast,320,2012-10-25 21:55:00
5:15 PM,37.4,32.0,81,30.13,10.0,NW,27.6,-,N/A,,Overcast,320,2012-10-25 22:15:00
5:35 PM,37.4,30.2,75,30.14,10.0,NNW,23.0,-,N/A,,Overcast,330,2012-10-25 22:35:00
5:55 PM,37.4,30.2,75,30.16,10.0,NW,18.4,31.1,N/A,,Overcast,320,2012-10-25 22:55:00
6:15 PM,37.4,30.2,75,30.17,10.0,NW,17.3,26.5,N/A,,Overcast,320,2012-10-25 23:15:00
6:35 PM,37.4,30.2,75,30.18,10.0,NW,19.6,31.1,N/A,,Overcast,320,2012-10-25 23:35:00
6:55 PM,37.4,30.2,75,30.19,10.0,NW,16.1,23.0,N/A,,Overcast,320,2012-10-25 23:55:00
7:15 PM,37.4,30.2,75,30.19,10.0,NW,21.9,-,N/A,,Overcast,320,2012-10-26 00:15:00
7:35 PM,37.4,28.4,70,30.21,10.0,NNW,21.9,32.2,N/A,,Overcast,330,2012-10-26 00:35:00
7:55 PM,37.4,28.4,70,30.23,10.0,NNW,18.4,28.8,N/A,,Overcast,330,2012-10-26 00:55:00
8:15 PM,35.6,30.2,81,30.24,10.0,NW,16.1,21.9,N/A,,Overcast,320,2012-10-26 01:15:00
8:35 PM,37.4,30.2,75,30.24,10.0,NW,16.1,-,N/A,,Overcast,320,2012-10-26 01:35:00
8:55 PM,37.4,28.4,70,30.25,10.0,NNW,17.3,25.3,N/A,,Overcast,330,2012-10-26 01:55:00
9:15 PM,37.4,28.4,70,30.25,10.0,NW,17.3,24.2,N/A,,Overcast,320,2012-10-26 02:15:00
9:35 PM,37.4,30.2,75,30.25,10.0,NW,17.3,23.0,N/A,,Overcast,320,2012-10-26 02:35:00
9:55 PM,37.4,28.4,70,30.26,10.0,NW,17.3,23.0,N/A,,Overcast,320,2012-10-26 02:55:00
10:15 PM,35.6,28.4,75,30.26,10.0,NW,17.3,-,N/A,,Overcast,320,2012-10-26 03:15:00
10:35 PM,35.6,28.4,75,30.28,10.0,NW,16.1,21.9,N/A,,Overcast,320,2012-10-26 03:35:00
10:55 PM,35.6,28.4,75,30.28,10.0,NW,13.8,-,N/A,,Overcast,320,2012-10-26 03:55:00
11:15 PM,33.8,28.4,81,30.29,10.0,NW,11.5,-,N/A,,Mostly Cloudy,320,2012-10-26 04:15:00
11:55 PM,35.6,28.4,75,30.29,10.0,NW,12.7,-,N/A,,Overcast,320,2012-10-26 04:55:00